星链-5879 (STARLINK-5879 )

导读

STARLINK-5879是美国太空探索技术公司(SpaceX)星链互联网卫星星座的一员,于2023年6月23日发射入轨,属于星链星座扩容任务的组成部分。星链旨在为全球提供高速低延迟卫星互联网服务,该卫星服役后进一步提升了星链星座的覆盖范围与服务容量,目前已在轨道正常运行参与星座组网。

基本信息
目录编号:
57153
目录名称:
STARLINK-5879
国际标识:
2023-090BE
轨道中心:
EARTH
卫星名称:
星链-5879
卫星全名:
星链-5879 (STARLINK-5879 )
卫星状态:
在轨 (已飞行1176 天)
发射日期:
2023-06-23 UTC
国别 :
美国 (US)
星等 :
--
该卫星已列入 空间交会检测服务 Space Conjunction Data Service (SCDS) ,当前飞行风险评估等级: 无高风险
轨道信息
数据来源 国际轨道数据 AOE轨道数据
星历时间 2026-09-11T11:28:30+0800
16小时前
查看轨道信息
2026-09-06T06:00:00+0800
5天前
查看轨道信息
半长轴 6861.202km 6861.176km
偏心率 0.0001746 0.0002317
轨道倾角 43.003° 43.003°
近地点辐角 306.725° 295.228°
升交点赤经 284.904° 314.432°
平近点角 53.344° 80.218°
近地点 481.867km 481.449km
远地点 484.263km 484.629km
周期 94.267分钟 94.267分钟
每日圈数 15.275749 15.275835
详细信息
固有亮度:
5
最大亮度:
2.4
卫星平台:
Starlink v1.5
覆盖范围:
全球
运营商:
太空探索技术公司
运营商所在国:
美国
制造商(研发单位):
太空探索技术公司
制造商所在国:
美国
使用方式:
暂无
卫星简介
星链(Starlink)计划是由太空探索技术公司(SpaceX)提出的一个巨型低轨卫星互联网星座项目,计划在2019年至2024年间在太空搭建由约1.2万颗卫星组成的“星链”网络,其中1584颗将部署在地球上空550千米处的近地轨道,并从2020年开始工作。该卫星仍在工作。
2D轨道图
3D轨道图
轨道高度分析图
轨道倾角分析图
轨道综合分析图
查看轨道综合分析图
交会数据列表
事件ID 空间交会对象 最接近时刻(TCA) 交会距离 交会风险概率(CRP) 交会风险指数(CRI) 操作
CDM_260913-215205-715306-716421
2026-09-13T
21:52:21+0000
0.167 km
中距离
6.768524E-4 高风险 0.92
CDM_260911-233905-715306-650121
2026-09-11T
23:39:31+0000
0.548 km
远距离
1.119832E-4 高风险 0.76
CDM_260913-144805-715306-716421
2026-09-13T
14:48:40+0000
0.979 km
远距离
1.371832E-5 中风险 0.58
CDM_260912-125905-715306-650122
2026-09-12T
12:59:50+0000
1.499 km
极远距离
4.395035E-6 低风险 0.48
CDM_260912-143305-715306-650121
2026-09-12T
14:33:59+0000
1.603 km
极远距离
3.56278E-6 低风险 0.46
CDM_260911-220505-715306-650122
2026-09-11T
22:05:22+0000
1.614 km
极远距离
3.48908E-6 低风险 0.46
CDM_260910-011905-715306-630622
OBJECT P (66306)
2026-09-10T
01:19:10+0000
1.630 km
极远距离
3.129799E-6 低风险 0.45
CDM_260913-162205-715306-716421
2026-09-13T
16:22:49+0000
1.645 km
极远距离
2.473836E-6 低风险 0.43
CDM_260912-011305-715306-650121
2026-09-12T
01:13:41+0000
2.452 km
极远距离
1.253779E-6 低风险 0.37
CDM_260913-201805-715306-716421
2026-09-13T
20:18:12+0000
2.673 km
极远距离
8.508077E-7 极低风险 0.34
与全量物体交会距离演化趋势
与全量物体交会风险概率演化趋势